Fort Worth Alliance, TX

4:48 PM CDT on May 28, 2017 (GMT -0500)
Fort Worth Alliance

Weather History for KAFW - June, 2014

Change the Weather History Date:

Tuesday, June 3, 2014

  Actual Average Record
Temperature  
Mean Temperature 82 °F -  
Max Temperature 90 °F 85 °F 99 °F (2012)
Min Temperature 73 °F 65 °F 57 °F (2013)
Cooling Degree Days 16    
Growing Degree Days 32 (Base 50)    
Moisture  
Dew Point 68 °F    
Average Humidity 66    
Maximum Humidity 90    
Minimum Humidity 46    
Precipitation  
Precipitation 0.00 in - - ()
Sea Level Pressure  
Sea Level Pressure 29.92 in    
Wind  
Wind Speed 8 mph (SSE)    
Max Wind Speed 15 mph    
Max Gust Speed 24 mph    
Visibility 10 miles    
Events      
Averages and records for this station are not official NWS values.
T = Trace of Precipitation, MM = Missing Value Source: NWS Daily Summary

Daily Weather History Graph

Daily Weather History Graph

Search for Another Location

Airport or City:

Trip Planner

Search our weather history database for the weather conditions in past years. The results will help you decide how hot, cold, wet, or windy it might be!

Date:

Astronomy

Jun. 03, 2014 Rise Set
Actual Time 6:21 AM CDT 8:34 PM CDT
Civil Twilight 5:52 AM CDT 9:02 PM CDT
Nautical Twilight 5:18 AM CDT 9:37 PM CDT
Astronomical Twilight 4:40 AM CDT 10:14 PM CDT
Moon 11:34 AM CDT (6/3) 12:12 AM CDT (6/3)
Length of Visible Light 15h 09m
Length of Day
14h 13m
Waxing Crescent, 30% of the Moon is Illuminated
Jun 3
Waxing Crescent
Jun 5
First Quarter
Jun 12
Full
Jun 19
Last Quarter
Jun 27
New

Hourly Weather History & Observations

Time (CDT) Temp. Heat Index Dew Point Humidity Pressure Visibility Wind Dir Wind Speed Gust Speed Precip Events Conditions
12:53 AM 78.1 °F - 69.1 °F 74% 29.94 in 10.0 mi SSE 5.8 mph - N/A   Clear
1:53 AM 75.9 °F - 69.1 °F 79% 29.93 in 10.0 mi SSE 5.8 mph - N/A   Partly Cloudy
2:53 AM 73.9 °F - 69.1 °F 85% 29.92 in 10.0 mi South 4.6 mph - N/A   Partly Cloudy
3:53 AM 75.0 °F - 70.0 °F 84% 29.92 in 10.0 mi SSE 8.1 mph - N/A   Scattered Clouds
4:53 AM 73.9 °F - 70.0 °F 87% 29.93 in 10.0 mi South 6.9 mph - N/A   Clear
5:53 AM 73.0 °F - 70.0 °F 90% 29.94 in 10.0 mi South 8.1 mph - N/A   Partly Cloudy
6:53 AM 73.0 °F - 70.0 °F 90% 29.95 in 10.0 mi South 3.5 mph - N/A   Partly Cloudy
7:53 AM 75.9 °F - 71.1 °F 85% 29.97 in 10.0 mi SSE 8.1 mph - N/A   Scattered Clouds
8:53 AM 80.1 °F 83.6 °F 71.1 °F 74% 29.98 in 10.0 mi SSE 6.9 mph - N/A   Scattered Clouds
9:53 AM 81.0 °F 84.1 °F 69.1 °F 67% 29.98 in 10.0 mi SSE 9.2 mph - N/A   Scattered Clouds
10:53 AM 84.0 °F 87.8 °F 69.1 °F 61% 29.97 in 10.0 mi South 10.4 mph - N/A   Scattered Clouds
11:53 AM 87.1 °F 90.6 °F 68.0 °F 53% 29.97 in 10.0 mi SSE 13.8 mph 19.6 mph N/A   Scattered Clouds
12:53 PM 90.0 °F 94.5 °F 69.1 °F 50% 29.95 in 10.0 mi SSE 10.4 mph 17.3 mph N/A   Scattered Clouds
1:53 PM 90.0 °F 93.6 °F 68.0 °F 48% 29.93 in 10.0 mi South 11.5 mph 18.4 mph N/A   Scattered Clouds
2:53 PM 90.0 °F 92.8 °F 66.9 °F 46% 29.92 in 10.0 mi SSE 13.8 mph 23.0 mph N/A   Scattered Clouds
3:53 PM 89.1 °F 92.1 °F 66.9 °F 48% 29.90 in 10.0 mi SSE 15.0 mph 24.2 mph N/A   Scattered Clouds
4:53 PM 88.0 °F 90.3 °F 66.0 °F 48% 29.89 in 10.0 mi SSE 15.0 mph - N/A   Scattered Clouds
5:53 PM 90.0 °F 92.8 °F 66.9 °F 46% 29.87 in 10.0 mi South 12.7 mph 21.9 mph N/A   Scattered Clouds
6:53 PM 88.0 °F 90.3 °F 66.0 °F 48% 29.86 in 10.0 mi South 9.2 mph 20.7 mph N/A   Mostly Cloudy
7:53 PM 84.0 °F 86.3 °F 66.0 °F 55% 29.86 in 10.0 mi South 9.2 mph - N/A   Mostly Cloudy
8:53 PM 82.0 °F 84.5 °F 66.9 °F 60% 29.86 in 10.0 mi South 8.1 mph - N/A   Scattered Clouds
9:53 PM 81.0 °F 83.3 °F 66.9 °F 62% 29.85 in 10.0 mi South 9.2 mph - N/A   Scattered Clouds
10:53 PM 78.1 °F - 68.0 °F 71% 29.85 in 10.0 mi South 5.8 mph - N/A   Scattered Clouds
11:53 PM 79.0 °F - 68.0 °F 69% 29.83 in 10.0 mi South 9.2 mph - N/A   Clear